STARLINK-4715, 53801

Orbit data source: Space-Track

STARLINK-4715, 53801 is a payload satellite owned by SpaceX/Seattle (US) in LEO that was launched on Sun, 11 Sep 2022 UTC via an FALCON 9 launch vehicle from the Air Force Eastern Test Range (AFETR). Payload-class satellites include a variety of spacecraft equipped with specific instruments for various scientific and technological missions. These include communications satellites like Starlink; space stations such as the ISS; scientific satellites like the Hubble; Earth observation satellites from companies like Planet Labs, Umbra, and HawkEye 360; GPS; miniature CubeSats for education and research; and military/defense satellites.

Loading next visibility...
Identifier
53801, 2022-111AE
Orbit
LEO
Country
Flag of USUS
Related business
Manufacturer
SpaceX/Seattle
Mission
Operational Commercial Communications
Bus & Motor
STARLINK, Unknown motor
Mass
305 kg wet, ~290 kg dry
Launch date (UTC)
2022-09-11 (3 years ago)
Launch vehicle
FALCON 9
Launch site
Air Force Eastern Test Range (AFETR)
Object type
Payload
Rocket body
Debris
Shape & HBR
Box + 1 Pan, 10.1 m
Radar Cross Section
13.562 m², Large (>1 m²)

Expand to show TLE details & history
Last TLE update: 9 hours ago

TLE from 9 hours ago
0 STARLINK-4715
1 53801U 22111AE  25342.63410079  .00001387  00000-0  10519-3 0  9998
2 53801  53.2183 312.6343 0001367  88.9608 271.1541 15.08846039180070
Epoch: 2025-12-08T15:13Z
TLE epoch observation values (Epoch: 2025-12-08T15:13:06.308Z)
Latitude
Longitude
6.7277°
Altitude
540.604 km
Speed
7.593 km/s
True Right ascension
20h 50m 32s
True Declination
0° 00' 00"
Sunlit
Object was in daylight at epoch
Visualization orbit readout
Latitude
Unknown
Longitude
Unknown
Altitude
Unknown
Speed
Unknown
Apparent Right ascension
Unknown
Apparent Declination
Unknown
Sunlit
N/A
Visualization observer readout
Local Sidereal Time
22:21:03
Azimuth
Unknown
Elevation
Unknown
Doppler factor
Unknown
Orbital elements
Apogee altitude
540.915 km
Perigee altitude
539.024 km
Semi-major axis
6,918.107 km
Eccentricity
0.00014
Inclination
53.2183°
RAAN
312.6343°
Arg. of periapsis
88.9608°
True anomaly
271.13844°
Mean anomaly
271.1541°
Eccentric anomaly
271.14627°
Mean motion
3.77192 °/min
Orbital period
95.44 mins
BSTAR
0.00010519
Loading maneuver chart data...
Computing Atmospheric mass density...

Documentation

Showing up to 5 results
|